Temperature
17 15 14 14 13 15 16 16 15 15 12 11 10 11 12 11 9 9 9 10 11 11 12 10 9 8 7 7 6 6 6 5 5 4 4 3 3 2 1 1 0 -0 -1 -2
15 15 15 16 16 16 16 16 15 14 13 12 10 11 12 11 9 10 10 11 12 12 11 10 9 8 8 8 7 7 6 5 5 4 4 3 3 2 1 1 0 -1 -1 -2
16 16 17 17 17 17 16 16 15 15 14 12 12 11 12 13 11 11 11 12 13 13 13 12 11 10 9 8 8 7 7 6 5 4 4 3 2 2 1 1 0 -1 -2 -2
16 16 16 16 16 16 15 15 15 15 13 11 12 11 12 13 11 10 11 12 13 14 14 13 12 11 11 10 9 8 7 6 5 4 4 3 2 2 1 1 -0 -1 -2 -2
16 16 16 16 16 16 15 15 14 14 13 11 11 11 12 12 12 12 12 14 16 16 15 14 14 13 12 11 10 9 7 6 5 4 3 3 2 2 1 0 -0 -1 -2 -3
15 16 15 15 15 15 14 13 13 10 10 11 11 11 11 11 12 13 14 17 18 18 17 16 14 13 12 11 10 9 8 6 5 4 3 3 2 2 1 0 -0 -1 -2 -3
15 15 15 15 15 14 13 12 12 13 11 11 12 12 13 13 12 13 16 19 20 19 18 17 15 14 13 12 11 10 8 7 5 4 3 3 2 2 1 0 -0 -1 -2 -2
14 14 14 14 14 13 12 12 12 13 12 11 13 12 14 13 14 16 17 19 19 19 18 17 16 15 14 13 12 10 9 7 6 5 4 3 2 1 1 0 -1 -1 -2 -3
14 14 14 14 14 14 14 12 11 11 11 11 11 11 12 13 13 14 15 17 18 19 18 18 17 16 15 14 12 11 10 8 6 5 4 3 2 1 1 -0 -1 -1 -2 -3
14 14 14 13 13 13 13 12 10 11 12 11 11 11 13 15 14 12 12 15 18 19 18 18 17 16 15 14 12 11 9 8 6 5 4 3 2 1 1 -0 -1 -1 -2 -3
14 13 13 12 11 12 11 12 11 10 9 10 11 13 13 14 14 13 14 17 19 19 19 18 17 16 15 13 12 10 9 7 6 4 3 2 2 1 0 -0 -1 -2 -2 -3
12 11 11 12 12 11 11 11 10 11 11 9 8 13 14 12 12 13 15 18 19 19 18 18 17 16 14 13 12 10 9 7 6 4 3 2 2 1 0 -0 -1 -2 -2 -3
11 11 12 14 13 12 12 11 10 11 10 8 8 13 14 13 13 15 16 17 18 18 18 17 17 16 15 14 12 11 9 7 6 4 3 2 1 1 0 -0 -1 -2 -2 -3
11 10 12 14 14 13 12 12 11 11 10 9 10 14 16 15 14 14 17 17 17 18 18 17 16 16 15 14 12 11 9 7 6 4 3 2 2 1 0 -1 -1 -2 -2 -3
9 9 9 10 11 11 11 12 11 11 12 12 13 13 16 16 14 14 16 17 16 17 17 17 16 16 15 13 12 11 9 7 6 4 3 2 1 1 -0 -1 -1 -2 -3 -3
7 9 9 10 11 10 10 11 12 12 12 12 13 14 16 15 15 14 15 15 15 17 17 17 16 16 15 14 13 12 10 8 6 4 3 2 1 0 -0 -1 -2 -2 -3 -3
6 7 8 8 10 10 10 12 12 11 10 11 12 13 14 12 11 13 15 16 16 17 17 17 16 16 15 14 13 12 11 9 6 4 3 2 1 0 -0 -1 -2 -2 -3 -3
7 7 7 6 9 10 13 13 12 12 11 11 12 13 12 12 14 15 16 16 17 17 17 17 16 15 15 14 13 12 10 8 6 5 3 2 1 0 -1 -1 -2 -2 -3 -3
7 8 7 6 7 9 10 11 11 11 11 12 12 12 13 13 12 15 18 17 17 16 16 15 15 14 14 13 13 11 10 8 6 5 3 2 1 0 -1 -1 -1 -2 -3 -3
6 7 7 6 6 8 12 13 13 13 12 13 12 11 12 11 10 13 17 16 16 15 15 15 14 14 14 13 12 11 10 8 7 6 4 3 1 0 -0 -1 -2 -2 -3 -3
5 5 5 6 6 8 10 11 12 12 13 14 14 14 13 11 12 15 15 15 15 15 14 14 14 13 13 12 11 10 9 9 8 6 4 2 1 0 -1 -1 -2 -2 -3 -3
6 4 4 5 5 8 10 10 11 13 14 15 15 15 14 14 14 14 14 14 14 14 13 13 13 13 12 12 11 10 9 9 7 5 3 2 1 -0 -1 -1 -2 -2 -3 -3
6 7 7 7 10 11 11 12 14 14 14 15 14 14 14 13 13 13 13 13 13 13 13 12 12 12 12 11 10 9 9 7 6 4 3 2 1 -0 -1 -1 -2 -2 -3 -3
7 7 6 6 7 9 12 12 13 14 13 13 13 13 13 12 12 12 12 12 12 12 11 11 11 11 11 11 10 9 8 6 5 4 3 2 1 -0 -1 -1 -2 -2 -3 -3
8 8 7 7 8 10 12 13 13 13 12 12 12 12 11 11 11 11 11 11 10 10 11 11 10 10 10 10 9 8 7 5 4 3 2 1 0 -0 -1 -1 -2 -2 -2 -3
8 8 8 10 11 10 11 11 11 11 11 10 10 10 10 10 10 10 9 9 9 10 10 10 9 9 9 9 9 8 6 5 3 2 1 1 0 -1 -1 -1 -2 -2 -3 -3
Wind_Speed
1 3 4 8 9 6 4 5 7 6 5 8 12 18 18 9 12 14 14 15 18 22 17 13 14 14 15 15 15 15 13 11 8 5 4 3 3 3 4 8 9 10 9 9
2 5 7 6 5 5 4 5 5 4 4 7 8 15 16 10 11 14 17 19 20 18 13 14 14 16 18 19 18 17 16 14 11 7 4 3 3 3 5 7 8 9 9 9
7 6 3 3 4 4 3 4 4 3 3 4 6 11 9 5 6 9 11 14 15 19 19 17 18 19 19 20 21 19 17 15 12 9 5 3 2 1 2 3 4 8 9 9
5 4 3 3 4 5 5 2 0 1 2 5 2 6 9 6 7 9 14 14 16 18 18 18 19 19 22 22 18 17 17 15 13 11 8 8 6 5 5 4 4 7 9 9
5 4 5 6 5 5 4 1 1 1 0 4 3 4 10 4 8 12 13 16 19 18 18 19 21 22 21 18 17 16 16 15 13 12 12 9 8 6 4 4 5 5 7 9
6 3 4 5 2 2 3 4 4 5 4 4 6 7 9 7 9 10 10 13 17 17 16 17 15 15 15 14 15 15 16 16 14 14 12 11 11 9 7 6 6 5 4 6
5 4 3 3 3 2 4 4 3 4 2 7 4 6 11 11 11 11 11 12 14 14 14 14 14 16 17 18 18 17 18 16 15 14 13 12 11 10 10 8 7 6 5 4
4 7 5 4 6 6 5 7 6 4 5 6 5 8 10 10 9 10 10 10 9 11 12 14 16 17 18 19 20 19 20 17 16 15 14 12 11 8 7 9 7 7 6 6
5 6 1 2 2 6 5 6 7 5 3 6 8 9 11 7 7 8 9 9 11 12 12 13 13 15 17 19 21 21 20 17 16 16 13 12 11 10 9 8 7 6 6 7
7 6 4 1 1 2 3 5 5 4 3 6 8 7 7 9 10 11 10 12 14 12 11 11 12 14 16 17 17 16 18 18 14 15 13 12 11 10 9 8 8 8 7 8
5 5 4 1 7 9 6 5 6 4 4 5 6 9 8 10 11 12 15 14 14 14 14 14 13 13 12 12 14 16 16 15 14 15 13 11 10 10 9 8 9 8 7 7
5 4 6 9 5 6 8 8 9 6 7 6 5 11 10 11 11 11 13 12 11 12 11 11 11 10 12 15 15 17 17 16 15 14 13 12 10 9 9 9 9 7 8 7
6 4 3 7 2 2 5 6 7 5 3 5 6 12 6 6 8 8 10 11 11 11 11 9 9 12 15 16 16 17 17 17 15 13 13 12 11 11 10 10 8 8 8 7
5 6 8 9 8 6 6 6 8 8 6 8 14 21 22 17 12 11 11 12 11 11 10 9 10 12 14 15 16 17 17 16 15 14 14 14 13 12 11 9 8 8 7 7
5 6 8 10 11 7 9 12 11 15 14 15 19 22 30 25 12 11 12 12 11 11 11 11 13 13 13 14 15 16 16 16 16 15 15 15 12 11 9 9 8 8 7 8
5 5 4 7 9 9 10 16 19 19 16 19 24 27 28 19 10 10 12 12 12 12 12 12 13 13 15 17 17 17 17 16 15 16 16 13 11 11 10 9 8 8 8 7
7 7 4 7 5 6 9 15 17 10 10 11 18 20 18 13 12 11 11 11 12 13 13 13 13 15 16 17 18 19 18 15 16 16 14 13 13 12 11 10 9 9 8 7
10 8 5 4 2 11 11 6 9 11 13 15 16 17 15 13 10 10 11 12 13 13 13 12 11 12 13 13 14 13 13 15 17 16 15 14 14 13 11 10 10 9 7 7
6 8 5 4 6 11 10 10 7 8 11 12 17 20 16 8 7 9 10 8 11 12 12 11 10 10 10 11 12 13 14 14 16 17 17 16 15 14 12 12 11 9 7 7
3 3 5 5 6 10 10 4 2 2 9 8 7 11 8 2 4 8 8 6 8 10 10 10 9 8 9 10 12 14 16 17 20 20 18 16 15 14 14 13 11 8 7 8
4 4 7 9 10 12 10 3 4 4 8 5 2 4 4 5 9 9 10 10 11 12 13 11 9 9 10 9 13 16 17 21 19 16 15 15 15 15 13 11 9 8 8 7
11 9 9 7 8 13 7 7 9 9 4 6 7 7 8 10 12 13 13 13 13 13 13 12 10 11 8 10 14 17 20 17 13 14 15 15 15 13 12 11 10 8 8 7
9 11 8 13 12 6 6 10 8 5 8 10 9 12 12 12 14 15 13 14 13 13 13 10 10 11 9 11 15 19 17 12 14 15 16 14 14 13 12 12 10 8 7 6
8 7 6 9 11 12 11 10 12 13 13 13 13 14 13 15 17 16 15 13 12 13 12 10 9 11 12 12 16 18 11 13 16 17 16 14 14 14 12 10 10 9 8 7
9 6 9 14 12 12 12 10 11 11 11 13 14 14 13 14 15 15 14 13 12 11 11 9 9 12 14 11 14 14 12 15 17 16 15 15 14 14 13 12 11 10 9 9
11 14 18 25 17 16 16 13 14 15 13 13 13 13 12 11 13 13 12 11 11 12 11 11 11 12 13 10 13 13 14 16 17 16 15 13 12 12 11 11 9 14 13 14
Wind_Direction
115 98 214 218 205 216 222 234 261 263 188 187 234 258 270 222 216 229 223 218 221 226 222 208 201 191 184 183 183 182 179 177 166 160 168 184 215 229 248 254 247 243 249 261
38 248 230 198 196 223 237 268 273 281 194 204 265 274 271 227 212 221 222 222 224 228 222 212 201 193 192 190 189 187 186 182 179 175 166 171 180 211 233 242 244 244 252 263
223 239 196 190 221 242 264 245 254 280 345 261 305 301 285 257 223 232 228 225 226 225 224 215 206 201 198 197 194 192 189 185 182 171 154 152 151 234 241 234 236 245 258 267
240 227 200 206 236 200 256 215 205 317 350 296 233 294 289 272 265 248 238 231 232 229 225 218 211 206 205 203 195 191 186 184 181 172 172 172 187 205 218 216 227 252 262 266
260 208 206 223 231 193 218 155 115 59 143 309 245 218 282 285 267 258 243 233 235 231 224 220 214 211 208 199 192 189 184 184 181 179 180 181 197 208 217 226 242 250 259 262
243 226 212 212 172 149 116 59 54 49 65 291 225 189 274 237 221 242 244 233 232 231 225 224 217 206 201 191 189 186 185 187 184 184 184 187 196 204 214 228 238 245 246 257
289 266 228 158 151 84 96 82 358 328 329 256 230 210 250 245 224 219 226 232 231 225 220 218 209 202 197 191 191 189 189 191 188 188 191 194 197 199 210 220 228 235 242 246
283 285 229 199 191 182 182 152 176 237 252 286 285 238 254 257 250 235 238 243 241 229 219 217 212 204 199 194 191 191 193 193 189 192 196 196 195 198 209 214 217 225 232 241
219 265 214 178 180 174 187 201 179 163 268 272 271 277 295 262 261 237 236 244 246 238 227 221 212 203 198 195 195 194 193 193 193 195 194 196 197 199 207 213 217 224 231 248
190 255 266 195 68 247 201 148 113 154 241 270 284 272 254 271 251 243 240 240 246 245 240 230 216 207 201 198 195 193 194 195 192 192 195 200 200 202 205 209 219 227 234 246
184 215 274 263 210 202 170 188 182 181 191 201 269 270 230 240 241 233 235 235 239 240 236 231 221 209 198 189 190 194 195 194 193 194 195 195 196 199 202 211 222 227 234 241
175 156 256 251 237 193 187 196 166 185 234 209 230 268 258 248 260 246 246 246 246 244 240 231 216 196 192 195 196 197 198 198 198 194 192 197 195 195 204 216 223 225 235 240
151 148 300 322 305 211 226 217 194 180 178 205 218 265 275 282 282 264 259 264 263 259 252 236 210 202 203 202 201 201 201 201 196 190 192 196 198 200 209 216 222 226 233 242
133 183 202 230 239 196 220 226 199 184 214 236 234 257 275 276 276 275 267 264 266 262 252 236 223 216 212 207 204 203 203 199 193 191 194 200 203 205 208 212 218 225 231 243
146 224 239 254 261 246 241 247 226 217 222 235 255 257 268 277 274 260 262 269 269 263 252 239 231 225 216 211 209 206 204 198 193 193 198 205 202 199 202 209 217 224 232 246
171 220 257 272 263 250 254 254 248 241 236 241 257 268 268 279 280 268 268 268 266 263 257 249 238 228 221 216 212 207 205 198 192 196 202 200 194 197 203 208 215 225 235 245
187 190 215 266 289 325 267 241 238 226 215 214 244 255 272 281 273 265 266 264 259 264 266 258 244 232 227 219 211 207 203 191 192 198 198 194 194 200 205 208 214 226 235 244
171 171 198 263 327 245 248 238 224 233 246 228 244 259 267 263 274 270 262 261 267 269 268 265 253 240 231 220 208 202 190 190 195 198 197 194 193 200 201 204 218 227 230 239
173 167 187 207 246 269 286 270 216 216 270 240 241 259 271 294 316 295 269 240 247 261 267 267 258 246 233 214 197 185 190 192 197 201 200 196 194 196 199 210 220 223 225 237
95 139 183 200 225 251 252 254 152 128 286 279 238 258 285 50 322 286 293 299 284 281 278 275 271 251 234 212 181 186 196 198 205 205 201 194 193 196 202 211 215 215 220 234
161 191 206 221 235 260 259 249 142 209 254 315 323 278 279 226 239 264 293 296 288 285 282 278 266 251 238 198 181 198 203 210 209 199 192 190 192 197 202 205 209 212 219 229
185 188 205 194 219 255 231 159 196 230 299 314 311 298 282 269 273 281 286 286 287 287 284 276 264 259 239 191 191 208 216 214 193 186 188 190 192 194 197 200 206 209 212 223
208 204 208 205 226 258 192 213 247 289 289 290 291 292 291 286 284 286 285 285 286 283 282 277 263 263 245 205 203 218 221 192 181 185 191 191 191 193 192 195 200 204 207 215
240 224 233 251 258 265 266 257 264 263 264 274 282 287 288 285 287 288 288 287 287 286 285 282 271 263 257 225 216 225 210 181 183 190 192 190 190 192 195 197 199 203 205 209
232 234 251 264 271 284 265 262 271 282 287 289 290 290 288 288 288 288 291 290 289 289 288 282 268 264 261 239 225 220 199 184 189 193 193 191 192 191 194 199 203 203 206 203
230 243 257 268 272 273 281 282 284 288 289 292 295 297 297 293 290 293 294 292 292 292 293 290 279 271 269 249 232 215 198 190 191 194 195 193 191 191 192 194 203 217 214 222
Height
1563 1567 1569 1567 1566 1564 1564 1565 1566 1561 1559 1564 1563 1554 1543 1543 1544 1542 1541 1541 1541 1540 1543 1546 1548 1549 1550 1550 1551 1552 1553 1554 1556 1556 1556 1554 1553 1551 1549 1546 1544 1541 1538 1535
1566 1567 1561 1559 1560 1561 1562 1563 1563 1560 1558 1561 1560 1551 1538 1534 1534 1532 1533 1533 1533 1535 1537 1539 1541 1542 1542 1542 1543 1544 1545 1547 1549 1550 1550 1549 1548 1546 1544 1542 1539 1537 1534 1531
1564 1560 1557 1558 1559 1560 1560 1561 1561 1560 1559 1559 1560 1550 1535 1528 1528 1528 1527 1527 1527 1528 1529 1531 1533 1533 1534 1534 1535 1536 1538 1540 1543 1544 1544 1543 1542 1541 1539 1537 1535 1532 1530 1527
1559 1557 1557 1558 1558 1558 1562 1558 1558 1559 1563 1567 1562 1566 1538 1528 1526 1523 1520 1520 1519 1521 1522 1524 1525 1525 1525 1526 1528 1530 1532 1533 1535 1537 1537 1537 1536 1535 1534 1532 1530 1528 1525 1522
1558 1557 1557 1558 1556 1555 1557 1557 1558 1560 1563 1567 1563 1566 1542 1529 1526 1517 1512 1512 1512 1513 1515 1516 1516 1517 1519 1521 1521 1523 1524 1526 1528 1529 1530 1530 1530 1529 1528 1526 1525 1523 1520 1517
1556 1554 1554 1554 1554 1554 1556 1559 1561 1567 1570 1572 1559 1564 1547 1529 1518 1510 1505 1505 1505 1507 1508 1509 1511 1512 1513 1514 1514 1515 1517 1518 1520 1522 1523 1524 1524 1523 1522 1520 1519 1517 1515 1512
1557 1554 1552 1552 1555 1556 1558 1567 1573 1569 1575 1567 1551 1554 1535 1510 1505 1501 1499 1499 1500 1502 1503 1503 1504 1504 1504 1505 1506 1507 1508 1510 1512 1514 1516 1517 1517 1516 1515 1514 1513 1511 1509 1506
1564 1562 1552 1551 1553 1557 1559 1563 1573 1573 1573 1564 1548 1546 1519 1501 1497 1496 1496 1496 1496 1497 1497 1497 1497 1497 1497 1498 1498 1499 1500 1502 1504 1506 1508 1510 1510 1510 1509 1508 1507 1505 1503 1500
1561 1559 1550 1550 1550 1552 1555 1560 1560 1569 1568 1569 1554 1537 1515 1496 1494 1492 1492 1492 1491 1491 1491 1491 1491 1491 1491 1491 1491 1492 1493 1495 1497 1499 1501 1502 1503 1503 1502 1502 1500 1499 1497 1495
1553 1559 1550 1550 1551 1550 1552 1555 1565 1568 1570 1569 1555 1541 1522 1498 1494 1491 1489 1487 1486 1486 1486 1485 1485 1485 1484 1485 1485 1486 1486 1488 1490 1492 1494 1495 1496 1496 1496 1495 1494 1493 1491 1489
1551 1557 1553 1552 1552 1550 1553 1555 1556 1562 1566 1569 1561 1532 1501 1493 1487 1486 1482 1481 1480 1481 1480 1479 1479 1479 1479 1479 1478 1478 1479 1481 1482 1484 1486 1488 1489 1489 1489 1489 1488 1487 1485 1483
1550 1558 1558 1550 1543 1543 1545 1546 1552 1558 1556 1559 1561 1525 1488 1486 1482 1481 1479 1477 1477 1477 1475 1474 1474 1473 1472 1471 1471 1471 1471 1473 1475 1477 1479 1480 1482 1482 1482 1482 1482 1481 1479 1477
1550 1556 1558 1548 1548 1545 1543 1542 1543 1545 1550 1556 1555 1517 1484 1482 1479 1478 1477 1475 1474 1472 1471 1469 1468 1466 1465 1464 1463 1463 1464 1465 1467 1470 1471 1473 1474 1475 1475 1476 1475 1474 1473 1471
1547 1553 1553 1548 1540 1538 1539 1537 1538 1541 1546 1544 1530 1503 1483 1479 1478 1476 1474 1471 1469 1467 1465 1463 1461 1460 1458 1457 1456 1456 1456 1457 1459 1461 1462 1464 1466 1468 1469 1469 1469 1468 1467 1465
1546 1550 1547 1540 1535 1536 1534 1531 1530 1531 1525 1523 1504 1497 1479 1470 1472 1471 1468 1466 1463 1461 1459 1457 1455 1454 1452 1450 1448 1447 1448 1449 1451 1452 1454 1456 1459 1461 1462 1462 1462 1462 1460 1459
1545 1547 1544 1539 1531 1531 1530 1522 1517 1514 1512 1507 1497 1486 1469 1467 1467 1465 1462 1460 1458 1455 1454 1452 1450 1447 1445 1443 1441 1440 1439 1440 1442 1443 1445 1449 1451 1453 1454 1455 1456 1455 1454 1453
1544 1546 1545 1541 1531 1528 1525 1507 1501 1502 1497 1496 1491 1475 1464 1465 1463 1460 1457 1455 1453 1451 1449 1447 1444 1442 1439 1436 1434 1432 1431 1432 1433 1434 1437 1440 1443 1445 1447 1448 1449 1449 1448 1447
1537 1541 1544 1543 1533 1532 1501 1489 1489 1489 1484 1482 1475 1467 1462 1460 1458 1456 1454 1452 1449 1447 1445 1443 1440 1436 1433 1430 1427 1425 1424 1424 1424 1426 1428 1431 1434 1437 1439 1441 1441 1442 1442 1441
1528 1533 1539 1543 1536 1517 1500 1487 1484 1486 1480 1469 1467 1461 1457 1458 1456 1451 1449 1448 1447 1445 1442 1439 1435 1431 1427 1423 1420 1417 1416 1415 1416 1416 1419 1422 1426 1429 1431 1433 1435 1436 1436 1435
1529 1529 1535 1538 1536 1520 1491 1480 1478 1481 1480 1462 1461 1459 1458 1459 1462 1452 1448 1446 1443 1440 1437 1432 1428 1424 1419 1416 1412 1409 1406 1405 1405 1406 1410 1414 1418 1421 1423 1426 1428 1429 1429 1429
1531 1532 1533 1530 1526 1503 1485 1479 1480 1486 1474 1462 1459 1458 1458 1457 1454 1448 1444 1441 1438 1434 1430 1425 1421 1416 1412 1408 1404 1400 1397 1395 1396 1399 1402 1406 1409 1413 1417 1420 1422 1423 1423 1423
1518 1525 1526 1523 1524 1503 1475 1478 1478 1469 1462 1460 1458 1456 1454 1451 1447 1442 1438 1434 1430 1426 1422 1417 1412 1407 1404 1399 1395 1391 1388 1388 1390 1392 1394 1398 1402 1406 1409 1412 1415 1416 1417 1417
1506 1501 1498 1497 1485 1473 1471 1469 1466 1464 1461 1458 1456 1453 1450 1445 1439 1435 1430 1426 1422 1418 1413 1409 1404 1398 1395 1391 1386 1382 1381 1381 1382 1383 1385 1389 1394 1398 1401 1405 1407 1409 1410 1410
1493 1490 1490 1485 1475 1469 1466 1464 1462 1461 1457 1454 1451 1448 1444 1438 1433 1428 1423 1418 1413 1409 1405 1400 1395 1389 1385 1381 1377 1374 1373 1372 1372 1373 1376 1380 1384 1389 1393 1396 1399 1402 1403 1404
1484 1483 1481 1474 1468 1464 1459 1459 1457 1454 1452 1449 1445 1441 1437 1431 1426 1421 1415 1410 1406 1402 1397 1392 1387 1381 1376 1372 1368 1365 1363 1362 1363 1364 1367 1370 1375 1379 1384 1388 1391 1394 1396 1397
1474 1475 1473 1461 1460 1458 1452 1453 1452 1447 1443 1440 1437 1432 1429 1425 1419 1414 1409 1404 1400 1395 1390 1384 1379 1373 1368 1363 1358 1355 1354 1353 1353 1354 1357 1361 1365 1370 1375 1380 1384 1387 1390 1391